This is the latest recevied weather packets stored in our database for station/object KN6CRX-10. If no packets are shown the sender has not sent any weather packets the latest 10 day(s).
| Time | Temp. | Humidity | Pressure | Rain* | Wind** | Luminosity | Snow |
|---|---|---|---|---|---|---|---|
| 1788134346 | 25° C | 24% | 1018.5 hPa | 0 mm | - | 47 W/m² | - |
| 1788134040 | 25° C | 23% | 1018.4 hPa | 0 mm | - | 48 W/m² | - |
| 1788133736 | 25° C | 25% | 1018.3 hPa | 0 mm | - | 51 W/m² | - |
| 1788133431 | 25° C | 25% | 1018.3 hPa | 0 mm | - | 54 W/m² | - |
| 1788133127 | 25° C | 25% | 1018.3 hPa | 0 mm | - | 59 W/m² | - |
| 1788132823 | 25° C | 26% | 1018.4 hPa | 0 mm | - | 86 W/m² | - |
| 1788132518 | 25° C | 24% | 1018.4 hPa | 0 mm | - | 108 W/m² | - |
| 1788132214 | 25° C | 25% | 1018.3 hPa | 0 mm | - | 117 W/m² | - |
| 1788131910 | 25° C | 27% | 1018.2 hPa | 0 mm | - | 129 W/m² | - |
| 1788131605 | 24.44° C | 30% | 1018.3 hPa | 0 mm | - | 111 W/m² | - |
| 1788131304 | 25° C | 35% | 1018.4 hPa | 0 mm | - | 118 W/m² | - |
| 1788130999 | 25.56° C | 33% | 1018.3 hPa | 0 mm | - | 119 W/m² | - |
| 1788130694 | 26.67° C | 30% | 1018 hPa | 0 mm | - | 116 W/m² | - |
| 1788130389 | 26.11° C | 32% | 1018.2 hPa | 0 mm | - | 265 W/m² | - |
| 1788130089 | 26.11° C | 31% | 1018.3 hPa | 0 mm | - | 144 W/m² | - |
| 1788129783 | 26.11° C | 34% | 1018.4 hPa | 0 mm | - | 607 W/m² | - |
| 1788129480 | 26.11° C | 32% | 1018.2 hPa | 0 mm | - | 614 W/m² | - |
| 1788129176 | 26.67° C | 33% | 1018.5 hPa | 0 mm | - | 619 W/m² | - |
| 1788128875 | 26.67° C | 31% | 1018.6 hPa | 0 mm | - | 617 W/m² | - |
| 1788128571 | 27.22° C | 34% | 1018.5 hPa | 0 mm | - | 106 W/m² | - |
| 1788128266 | 27.22° C | 30% | 1018.4 hPa | 0 mm | - | 648 W/m² | - |
| 1788127964 | 27.78° C | 29% | 1018.5 hPa | 0 mm | - | 661 W/m² | - |
| 1788127658 | 26.67° C | 28% | 1018.5 hPa | 0 mm | - | 678 W/m² | - |
| 1788127357 | 26.67° C | 28% | 1018.6 hPa | 0 mm | - | 691 W/m² | - |
* Rain latest hour (hover to see other rain measurements)
** Current wind speed in m/s (hover to see current wind gust speed)